Find Starlink 6320

NORAD ID: 57336 Int'l Des: 2023-099 Owner: SPXS Country: US Constellation: starlink operational
LEOCIRCULAR

Live Position

Loading 3D Globe...

About Starlink 6320

Description loading...

Upcoming Passes

Passes for default location (London). Set your location on the main map for personalized predictions.

Altitude History

Loading altitude history...

Two-Line Element Set

1 57336U 23099J 26127.14435943 -.00001007 00000-0 -27076-4 0 9994
2 57336 43.0042 279.0854 0001626 271.3751 88.6914 15.27577727155057
Epoch: May 7, 2026 • Age: 6 hours

Current Status

Altitude 490.2 km
Velocity 7.62 km/s
Sub-Earth Point -29.68°S, 132.57°E
Launch Date Jul 16, 2023
Age 2.8 years
Type internet

Technical Details

Classification Payload
Mass 305.00 kg
Dry Mass 290.00 kg
Total Mass 305.00 kg
Length 0.20 m
Diameter 2.80 m
Span 9.00 m
Shape Box + pan
Manufacturer SPXS
Bus Type Starlink
Phase Status In Orbit
Owner/State SPXS/US

Most Searched